Location: Unspecified
(0.0000°N, 0.0000°E)
Time: 23:29:46
(UTC+00:00)

GONETS D1M 1 - Pass Details

Date: 21 May 2026
Orbit: 1435 x 1447 km, 82.5° (Epoch: 7 June)

Event Time Altitude Azimuth Distance (km) Brightness Sun altitude
Rises 18:15:21 0° 340° (NNW) 4,517 9.9 -4.4°
Reaches altitude 10° 18:18:24 10° 333° (NNW) 3,540 9.5 -5.1°
Maximum altitude 18:26:07 40° 267° (W) 2,003 8.1 -6.9°
Drops below altitude 10° 18:33:52 10° 200° (SSW) 3,544 8.7 -8.7°
Sets 18:36:58 0° 193° (SSW) 4,523 9.2 -9.4°
